Погода в Сочивках

Беларусь     52°14′00″N   25°26′42″E
темп.,
°C
ветер,
м/с
пор.,
м/с
влажн.,
%
обл.,
%
осадки,
мм/ч
давл.,
гПа
погр.,
м
18 апреля, вс
вс1800:00+6вюв128679 0.0 101911
03:00+6с228589 0.0 101912
06:00+6ссз2389100 0.0 101951
09:00+9ссз237896 0.0 1019259
12:00+10сз348258 0.0 1019432
15:00+14с236781 0.2 1018886
18:00+14всв46699 1.8 1017903
21:00+10в5108692 2.3 1019322
19 апреля, пн
пн1900:00+6всв36925 0.0 1020120
03:00+6всв489331 0.0 1020199
06:00+4всв37943 0.0 1020142
09:00+8всв46785 0.0 1020363
12:00+12всв5660100 0.1 10191613
15:00+9всв5767100 0.1 10201059
18:00+9всв3773100 0.0 1019746
21:00+8всв4976100 0.1 1019388
20 апреля, вт
вт2000:00+7св3881100 0.0 1018237
03:00+7св4787100 0.1 1017203
06:00+6св489491 0.3 1017298
09:00+7всв578189 0.3 1017543
12:00+10св5662100 0.2 10151444
15:00+11св455854 0.4 10141439
18:00+9св566261 0.2 10131179
21:00+6св22745 0.2 101418
21 апреля, ср
ср2100:00+4ссз11815 0.0 101310
03:00+3зсз228327 0.0 101319
06:00+3з338968 0.1 101252
09:00+7з3581100 0.3 1012321
12:00+11зсз4562100 0.6 10111203
15:00+13з5651100 0.9 10101870
18:00+13з4657100 0.1 10101310
21:00+8зюз337752 0.6 101142
22 апреля, чт
чт2200:00+6юз34855 0.0 101257
03:00+5юз36879 0.0 101297
06:00+4ююз499052 0.0 1012172
09:00+9зюз588082 0.1 1012513
12:00+8з4688100 0.9 1013578
15:00+9зюз5866100 0.9 10131180
18:00+10зюз5962100 0.1 10131587
21:00+6з496974 0.1 1014255